C/2013 P3 ( Palomar )

Japanese version
Home page
Updated on March 3, 2018

---------------------------------------------------------------------

* Profile

Discovery Date August 9, 2013
Magnitude 18.9 mag
Discoverer Palomar Transient Factory

* Pictures

* Orbital Elements

Epoch 2014 Dec. 9.0 TT = JDT 2457000.5
T 2014 Nov. 23.83177 TT                                 MPCW
q   8.6465437            (2000.0)            P               Q
z  -0.0001406      Peri.  177.18376     +0.99782245     +0.04583959
 +/-0.0000007      Node   177.27540     -0.05998782     +0.33180671
e   1.0012155      Incl.   93.91037     +0.02741935     -0.94223301
From 469 observations 2013 Aug. 8-2018 Jan. 6, mean residual 0".4.

* Magnitudes Graph

        m1 = -6.0 + 5 log d + 20.0 log r(t - 300)

---------------------------------------------------------------------

The orbital elements are published on M.P.E.C. 2018-B155.
The magnitudes graphs are made with Comet for Windows.

---------------------------------------------------------------------

Copyright(C) Seiichi Yoshida (comet@aerith.net). All rights reserved.